[[{"header":{"parameterUnit":"m.s-1","parameterCategory":2,"la1":30.2991,"la2":30.254,"lo1":-89.0895,"lo2":-89.0444,"dy":0.0017,"dx":0.0017,"nx":28,"ny":28,"refTime":"2024-03-30T09:00:00:Z","depth":"0","parameterNumber":2,"parameterNumberName":"U-component_of_CURRENTS"},"data":[0,0,0,0,0,0,0,0,0,0,0,0,0,0,0,0,0,0,0,0,0,0,0,0,0,0,0,0,0,0,0,0,0,0,0,0,0,0,0,0,0,0,0,0,0,0,0,0,0,0,0,0,0,0,0,0,0,0,0.2469,0.2469,0,0.2442,0.2442,0.2441,0.2406,0.2406,0.2406,0.2405,0.2376,0.2375,0.2375,0,0,0,0,0,0,0,0,0,0,0,0,0,0.2539,0.2537,0.2469,0.2469,0.2469,0.2442,0.2442,0.2441,0.2406,0.2406,0.2406,0.2405,0.2376,0.2375,0.2375,0,0,0,0,0,0,0,0,0,0,0,0,0,0.2507,0.2536,0.2469,0.245,0.2448,0.2442,0.2442,0.2441,0.2406,0.2406,0.2405,0.2405,0.2376,0.2375,0.2375,0.238,0,0,0.2372,0.2372,0,0,0,0,0,0,0,0,0.2509,0.2504,0.2453,0.2451,0.245,0.2429,0.2456,0.2421,0.2407,0.242,0.2405,0.2405,0.2395,0.2393,0.2386,0.2379,0.2378,0.2372,0.2372,0.2372,0.2371,0,0,0,0,0,0,0,0.2511,0.2506,0.2456,0.2453,0.2451,0.246,0.2454,0.2449,0.2409,0.2419,0.2417,0.2418,0.2394,0.2386,0.2385,0.2377,0.2372,0.2372,0.2371,0.2371,0.2409,0.241,0,0,0,0,0,0,0.2517,0.2507,0.2457,0.2455,0.2482,0.2459,0.2453,0.2434,0.2409,0.2405,0.2418,0.2416,0.2388,0.2386,0.2384,0.2428,0.2372,0.2371,0.2371,0.2407,0.2409,0.2411,0,0,0,0,0,0,0.2518,0.2512,0.2458,0.2484,0.2478,0.2458,0.2438,0.2434,0.2428,0.2409,0.2405,0.2417,0.2387,0.2385,0.2392,0.2425,0.2371,0.237,0.2406,0.2408,0.241,0.2491,0,0,0,0,0,0,0.252,0.2512,0.2503,0.2484,0.2477,0.2468,0.2439,0.2434,0.243,0.2427,0.2407,0.2403,0.2387,0.2393,0.2391,0.2423,0.2369,0.2404,0.2407,0.2409,0.2487,0.2496,0.2503,0,0,0,0,0,0.2522,0.251,0.2502,0.2497,0.2463,0.247,0.2467,0.245,0.2431,0.244,0.2425,0.2404,0.2409,0.2394,0.2391,0.2423,0.2403,0.2406,0.2409,0.2483,0.2494,0.2503,0,0,0,0,0,0,0.2536,0.2505,0.2496,0.2474,0.2481,0.2465,0.2467,0.2455,0.2448,0.2443,0.2418,0.2415,0.2439,0.2417,0.2401,0.2442,0.2404,0.2407,0.2461,0.2471,0.248,0.2474,0.2369,0,0,0,0,0,0.2536,0.2516,0.2506,0.2493,0.2496,0.2483,0.2482,0.2475,0.2466,0.2461,0.2447,0.2438,0.245,0.2448,0.2451,0.2466,0.2481,0.2486,0.2495,0.2502,0.2497,0.2552,0.2565,0.2421,0.2421,0.2421,0,0,0.254,0.252,0.251,0.2496,0.2494,0.25,0.2481,0.2486,0.2492,0.2461,0.2463,0.2469,0.2462,0.2488,0.2496,0.2473,0.2559,0.2506,0.2513,0.2503,0.2556,0.2571,0.2583,0.2423,0.2423,0.2423,0,0,0.2538,0.2522,0.2507,0.2517,0.252,0.2518,0.2523,0.2516,0.2516,0.2527,0.2516,0.254,0.2535,0.2548,0.2552,0.2606,0.2607,0.2608,0.264,0.2695,0.2707,0.2718,0.2794,0.2811,0.2606,0.2606,0.2607,0,0.2538,0.252,0.2512,0.2513,0.2526,0.2527,0.2537,0.2541,0.2539,0.2549,0.2538,0.2569,0.2566,0.261,0.2631,0.2627,0.2661,0.2604,0.2707,0.2718,0.2728,0.2802,0.282,0.2611,0.261,0.261,0.2609,0,0.2536,0.2528,0.253,0.2524,0.2543,0.2557,0.2572,0.2585,0.2587,0.2594,0.2639,0.2648,0.2664,0.2681,0.267,0.2741,0.2748,0.272,0.2683,0.2747,0.2822,0.2839,0.2617,0.2615,0.2614,0.2613,0,0,0.2493,0.2518,0.2516,0.2525,0.2553,0.2564,0.2594,0.2623,0.2639,0.2663,0.27,0.2736,0.2745,0.275,0.2756,0.2801,0.2918,0.2789,0.279,0.2867,0.3064,0.296,0.2969,0.291,0.2912,0.2914,0.3103,0,0.2486,0.2491,0.2514,0.2536,0.2542,0.2581,0.2612,0.2645,0.267,0.2708,0.2749,0.2787,0.2771,0.2795,0.284,0.2893,0.2959,0.287,0.2985,0.2989,0.2891,0.2982,0.2787,0.2926,0.3119,0.3122,0.3124,0,0.2463,0.2469,0.2487,0.2536,0.2547,0.2567,0.2622,0.2657,0.2723,0.2748,0.2799,0.2828,0.2909,0.2882,0.3016,0.2961,0.3019,0.3062,0.3069,0.2946,0.2914,0.2885,0.2949,0.283,0.3149,0.3147,0.3145,0,0.2414,0.2448,0.2463,0.248,0.2536,0.2558,0.2598,0.266,0.2696,0.2779,0.2817,0.2903,0.2965,0.3038,0.3117,0.3081,0.3268,0.3228,0.3202,0.3197,0.3036,0.301,0.2989,0.3337,0.3336,0.3336,0.3335,0,0.2382,0.2382,0.2438,0.2441,0.2468,0.2532,0.2573,0.2619,0.2703,0.2769,0.2833,0.2902,0.3006,0.3112,0.3165,0.3238,0.3314,0.3228,0.3237,0.306,0.3036,0.2923,0.2897,0.3343,0.3341,0.334,0.3339,0,0.2299,0.2343,0.2352,0.2415,0.2436,0.2454,0.2544,0.2587,0.2668,0.276,0.2797,0.2937,0.3071,0.3166,0.3319,0.33,0.3269,0.339,0.3183,0.316,0.2951,0.2937,0.2874,0.2801,0.338,0.3378,0.3377,0,0.2248,0.2248,0.2311,0.2333,0.2354,0.24,0.2447,0.2545,0.2608,0.278,0.2836,0.2991,0.3086,0.3254,0.326,0.3338,0.3255,0.3194,0.3061,0.2924,0.2918,0.2831,0.2768,0.292,0.2915,0.2911,0.2908,0,0.2151,0.2183,0.2205,0.226,0.2304,0.2358,0.2439,0.2478,0.2632,0.2708,0.2861,0.295,0.3083,0.3055,0.3119,0.3136,0.2979,0.3109,0.3021,0.2596,0.2448,0.2385,0.2843,0.2872,0.2875,0.2878,0.288,0.2881,0.2078,0.2085,0.2151,0.2198,0.2261,0.2338,0.2361,0.2462,0.2556,0.2667,0.2804,0.2853,0.2845,0.2881,0.2886,0.2687,0.2762,0.2553,0.2574,0.2518,0.2338,0.2716,0.27,0.2702,0.2705,0.2707,0.2708,0,0.2013,0.2055,0.2096,0.2174,0.2237,0.2291,0.2381,0.2392,0.2472,0.2556,0.2638,0.2561,0.248,0.2449,0.228,0.2158,0.2081,0.2082,0.1913,0.1901,0.2279,0.214,0.1932,0.1932,0.1932,0.1932,0.1932,0.1932,0.1985,0.2017,0.206,0.2147,0.2207,0.2258,0.2296,0.2292,0.2318,0.2271,0.2199,0.22,0.2148,0.2001,0.1804,0.1755,0.1635,0.1519,0.1602,0.1842,0.1886,0.1928,0.1788,0.1509,0.1509,0.1083,0.108,0.1077]},{"header":{"parameterUnit":"m.s-1","parameterCategory":2,"la1":30.2991,"la2":30.254,"lo1":-89.0895,"lo2":-89.0444,"dy":0.0017,"dx":0.0017,"nx":28,"ny":28,"refTime":"2024-03-30T09:00:00:Z","depth":"0","parameterNumber":3,"parameterNumberName":"V-component_of_CURRENTS"},"data":[0,0,0,0,0,0,0,0,0,0,0,0,0,0,0,0,0,0,0,0,0,0,0,0,0,0,0,0,0,0,0,0,0,0,0,0,0,0,0,0,0,0,0,0,0,0,0,0,0,0,0,0,0,0,0,0,0,0,0.0208,0.0208,0,0.0203,0.0203,0.0203,0.0186,0.0185,0.0185,0.0184,0.0155,0.0155,0.0154,0,0,0,0,0,0,0,0,0,0,0,0,0,0.0204,0.0204,0.0208,0.0208,0.0208,0.0203,0.0203,0.0203,0.0186,0.0185,0.0185,0.0184,0.0155,0.0155,0.0154,0,0,0,0,0,0,0,0,0,0,0,0,0,0.0204,0.0204,0.0208,0.0198,0.0197,0.0203,0.0203,0.0203,0.0186,0.0185,0.0185,0.0184,0.0155,0.0155,0.0154,0.0164,0,0,0.0152,0.0152,0,0,0,0,0,0,0,0,0.0204,0.0204,0.02,0.0199,0.0198,0.0194,0.0191,0.0189,0.0186,0.0191,0.0184,0.0184,0.0166,0.0165,0.0166,0.0162,0.0161,0.0152,0.0152,0.0152,0.0152,0,0,0,0,0,0,0,0.0204,0.0204,0.0207,0.02,0.0199,0.0195,0.0194,0.0191,0.0182,0.019,0.0189,0.0188,0.0165,0.0167,0.0165,0.016,0.0152,0.0152,0.0151,0.0151,0.016,0.0161,0,0,0,0,0,0,0.0204,0.0204,0.0207,0.0206,0.0199,0.0195,0.0195,0.0196,0.0182,0.018,0.0188,0.0187,0.0168,0.0166,0.0164,0.019,0.0152,0.0151,0.0151,0.0159,0.016,0.0161,0,0,0,0,0,0,0.0204,0.0205,0.0207,0.0205,0.0204,0.0196,0.0198,0.0197,0.0196,0.0181,0.0178,0.0189,0.0167,0.0165,0.0167,0.0188,0.0151,0.015,0.0159,0.016,0.016,0.0231,0,0,0,0,0,0,0.0204,0.0205,0.0206,0.0205,0.0205,0.0217,0.0199,0.0197,0.0196,0.0194,0.0181,0.0178,0.0167,0.0168,0.0167,0.0186,0.015,0.0158,0.0159,0.016,0.0228,0.0235,0.024,0,0,0,0,0,0.0204,0.0213,0.0206,0.0207,0.0207,0.0218,0.0218,0.021,0.0197,0.0205,0.0195,0.0178,0.0173,0.0169,0.0166,0.0186,0.0158,0.0159,0.016,0.0226,0.0233,0.024,0,0,0,0,0,0,0.0213,0.0212,0.0205,0.0212,0.0216,0.0215,0.0221,0.0212,0.0211,0.0208,0.0189,0.0186,0.0195,0.0178,0.0173,0.019,0.0161,0.0162,0.0212,0.0219,0.0225,0.0237,0.015,0,0,0,0,0,0.0216,0.022,0.022,0.0226,0.023,0.0225,0.0227,0.0223,0.0221,0.022,0.0211,0.0201,0.02,0.0199,0.0194,0.0206,0.02,0.0215,0.022,0.0226,0.0233,0.0239,0.0247,0.0165,0.0165,0.0165,0,0,0.0223,0.022,0.0224,0.0228,0.023,0.0247,0.0225,0.0235,0.0249,0.0217,0.0233,0.0221,0.0207,0.0222,0.0224,0.0211,0.0249,0.0227,0.0232,0.0237,0.0242,0.025,0.0257,0.0166,0.0166,0.0166,0,0,0.0242,0.0237,0.0249,0.0257,0.0262,0.0263,0.0267,0.027,0.0272,0.0285,0.0267,0.027,0.0264,0.0265,0.0262,0.0295,0.0278,0.0288,0.0332,0.0338,0.0345,0.0351,0.037,0.0377,0.0293,0.0293,0.0293,0,0.0247,0.0265,0.0256,0.0273,0.0287,0.0273,0.0299,0.0302,0.0305,0.0314,0.0297,0.0303,0.0288,0.0313,0.0324,0.0311,0.0313,0.031,0.0347,0.0353,0.0358,0.0375,0.0382,0.0296,0.0296,0.0296,0.0295,0,0.0282,0.0295,0.0307,0.0324,0.0336,0.0358,0.0363,0.0374,0.037,0.0373,0.0393,0.0378,0.0382,0.0378,0.0361,0.0393,0.0383,0.0355,0.0334,0.0371,0.0387,0.0393,0.0301,0.03,0.0299,0.0298,0,0,0.0295,0.0325,0.0329,0.0352,0.0368,0.0387,0.0411,0.0436,0.0459,0.0456,0.0491,0.0484,0.0473,0.0469,0.0451,0.0455,0.0494,0.0425,0.0423,0.0451,0.0522,0.0487,0.049,0.0473,0.0474,0.0475,0.0524,0,0.0325,0.037,0.0377,0.0428,0.0456,0.046,0.0488,0.0506,0.0513,0.0542,0.0532,0.0556,0.0509,0.0521,0.0517,0.0504,0.0511,0.0484,0.0474,0.0474,0.0445,0.0495,0.0478,0.0518,0.053,0.0531,0.0531,0,0.036,0.0385,0.0438,0.049,0.0504,0.0532,0.0579,0.0604,0.063,0.0637,0.0649,0.0641,0.0661,0.0609,0.0608,0.0595,0.0564,0.0545,0.0546,0.0492,0.045,0.0478,0.0528,0.0443,0.054,0.054,0.0539,0,0.0384,0.0433,0.0479,0.0496,0.0546,0.0575,0.0604,0.0633,0.0669,0.0705,0.0741,0.0738,0.0774,0.0724,0.0685,0.0651,0.0684,0.0629,0.057,0.0568,0.054,0.0533,0.0511,0.0623,0.0623,0.0623,0.0623,0,0.0419,0.0456,0.0495,0.0524,0.0585,0.061,0.0675,0.0698,0.0747,0.0818,0.0797,0.0867,0.0806,0.0814,0.0734,0.0689,0.0723,0.0595,0.0581,0.0564,0.0559,0.047,0.0415,0.0625,0.0624,0.0624,0.0623,0,0.044,0.0464,0.0521,0.0579,0.0599,0.0645,0.0723,0.0773,0.0814,0.091,0.0935,0.0989,0.1011,0.0935,0.0892,0.0781,0.0665,0.0686,0.0678,0.066,0.0484,0.0434,0.0402,0.0367,0.0621,0.0621,0.062,0,0.0457,0.0487,0.0556,0.0596,0.0626,0.0692,0.0743,0.0796,0.086,0.1001,0.1063,0.1127,0.1201,0.1119,0.094,0.0803,0.07,0.0664,0.0576,0.0489,0.0423,0.0392,0.0362,0.058,0.0579,0.0579,0.0578,0,0.0491,0.0511,0.056,0.0637,0.0698,0.0767,0.0851,0.0914,0.101,0.1123,0.1294,0.1375,0.1309,0.1189,0.0973,0.0854,0.059,0.0644,0.0562,0.0399,0.0358,0.0312,0.0541,0.0573,0.0573,0.0574,0.0574,0.0574,0.0514,0.0552,0.0617,0.0691,0.0758,0.0848,0.0928,0.1047,0.1193,0.1396,0.1458,0.1605,0.1373,0.1095,0.0928,0.0561,0.0572,0.0427,0.0382,0.0365,0.03,0.0518,0.0517,0.0517,0.0518,0.0518,0.0518,0,0.0548,0.0596,0.067,0.0762,0.0838,0.0867,0.1007,0.1118,0.1326,0.1513,0.1683,0.1621,0.1356,0.104,0.0542,0.0326,0.0259,0.0215,0.0168,0.0155,0.036,0.0325,0.0273,0.0273,0.0273,0.0274,0.0274,0.0274,0.0573,0.0643,0.0682,0.081,0.0877,0.1001,0.1091,0.1283,0.1441,0.1676,0.1748,0.1771,0.1471,0.0704,0.0216,0.0115,-0.0012,-0.0047,-0.0091,0.0036,0.0052,0.0068,0.0022,-0.0092,-0.0093,-0.0274,-0.0276,-0.0277]}],[{"header":{"parameterUnit":"m.s-1","parameterCategory":2,"la1":30.2991,"la2":30.254,"lo1":-89.0895,"lo2":-89.0444,"dy":0.0017,"dx":0.0017,"nx":28,"ny":28,"refTime":"2024-03-30T09:00:00:Z","depth":"2","parameterNumber":2,"parameterNumberName":"U-component_of_CURRENTS"},"data":[0,0,0,0,0,0,0,0,0,0,0,0,0,0,0,0,0,0,0,0,0,0,0,0,0,0,0,0,0,0,0,0,0,0,0,0,0,0,0,0,0,0,0,0,0,0,0,0,0,0,0,0,0,0,0,0,0,0,0.1851,0.1852,0,0.1837,0.1837,0.1836,0.1822,0.1822,0.1823,0.1823,0.1861,0.1862,0.1862,0,0,0,0,0,0,0,0,0,0,0,0,0,0.1857,0.1857,0.1851,0.1852,0.1852,0.1837,0.1837,0.1836,0.1822,0.1822,0.1823,0.1823,0.1861,0.1862,0.1862,0,0,0,0,0,0,0,0,0,0,0,0,0,0.1845,0.1856,0.1851,0.1847,0.1847,0.1837,0.1837,0.1836,0.1822,0.1823,0.1823,0.1823,0.186,0.1861,0.1863,0.1859,0,0,0.1866,0.1866,0,0,0,0,0,0,0,0,0.1845,0.1844,0.1848,0.1848,0.1848,0.1837,0.1853,0.1848,0.1822,0.1826,0.1823,0.1824,0.1861,0.1862,0.185,0.1861,0.1863,0.1866,0.1867,0.1867,0.1867,0,0,0,0,0,0,0,0.1846,0.1844,0.184,0.1848,0.1848,0.1844,0.1842,0.1851,0.1838,0.1825,0.1826,0.1833,0.1861,0.1849,0.1851,0.1863,0.1866,0.1867,0.1867,0.1868,0.1921,0.1922,0,0,0,0,0,0,0.1859,0.1845,0.1841,0.184,0.1854,0.1843,0.1841,0.1835,0.1836,0.1838,0.1832,0.1832,0.1846,0.1849,0.1852,0.1911,0.1867,0.1868,0.1869,0.192,0.1921,0.1922,0,0,0,0,0,0,0.1859,0.1858,0.1841,0.1848,0.1846,0.1844,0.1836,0.1835,0.1845,0.1842,0.1844,0.1848,0.1847,0.1851,0.1886,0.1911,0.1868,0.1869,0.1919,0.192,0.1921,0.199,0,0,0,0,0,0,0.1859,0.1858,0.1857,0.1848,0.1846,0.1856,0.1837,0.1834,0.185,0.185,0.1856,0.1858,0.1848,0.1885,0.1887,0.1911,0.187,0.1918,0.192,0.1921,0.1987,0.1994,0.1999,0,0,0,0,0,0.1859,0.1855,0.1856,0.1857,0.1845,0.1858,0.1856,0.1852,0.1851,0.1861,0.1869,0.1859,0.1895,0.1887,0.189,0.1914,0.1918,0.1919,0.1921,0.1984,0.1992,0.1999,0,0,0,0,0,0,0.1845,0.1853,0.1855,0.185,0.1866,0.1858,0.1862,0.1867,0.1877,0.1878,0.1877,0.188,0.1917,0.1906,0.1897,0.1931,0.1901,0.1904,0.1949,0.1956,0.1962,0.1966,0.1871,0,0,0,0,0,0.1846,0.186,0.1862,0.1868,0.1869,0.1871,0.1876,0.1878,0.1887,0.1891,0.1898,0.1904,0.1921,0.1933,0.1938,0.1965,0.1977,0.1978,0.1984,0.199,0.1994,0.2046,0.2058,0.1928,0.1928,0.1928,0,0,0.1847,0.1855,0.1862,0.187,0.1872,0.188,0.1874,0.1888,0.1901,0.1896,0.1916,0.193,0.1933,0.196,0.1974,0.1959,0.2034,0.1992,0.1997,0.1998,0.2049,0.2062,0.2074,0.1929,0.1929,0.1928,0,0,0.1856,0.1857,0.1867,0.188,0.1897,0.1898,0.1912,0.1916,0.1921,0.1949,0.1949,0.1989,0.1997,0.2015,0.2023,0.2068,0.2066,0.206,0.2098,0.2149,0.2161,0.2171,0.2212,0.2225,0.2062,0.2062,0.2062,0,0.1861,0.1861,0.1874,0.1884,0.1896,0.1912,0.1921,0.193,0.1951,0.1971,0.1964,0.2012,0.2025,0.2073,0.2088,0.2085,0.2105,0.2073,0.216,0.217,0.218,0.2219,0.2233,0.2066,0.2065,0.2065,0.2065,0,0.1862,0.1874,0.1881,0.1901,0.1918,0.1932,0.1948,0.1975,0.199,0.2005,0.2057,0.2075,0.2109,0.2119,0.212,0.2191,0.2181,0.2166,0.2146,0.2198,0.2235,0.2248,0.2071,0.207,0.2069,0.2068,0,0,0.1851,0.1877,0.1885,0.1895,0.1925,0.1939,0.1976,0.2013,0.2044,0.2074,0.2118,0.2163,0.2182,0.2192,0.2203,0.2249,0.2346,0.2239,0.224,0.2288,0.2458,0.236,0.2365,0.2348,0.2351,0.2353,0.246,0,0.1851,0.187,0.1886,0.1916,0.192,0.196,0.1992,0.2037,0.2072,0.212,0.2164,0.2206,0.2204,0.2232,0.2282,0.2331,0.2382,0.2318,0.2392,0.2394,0.2309,0.2377,0.2164,0.2234,0.2473,0.2475,0.2477,0,0.1834,0.1855,0.1874,0.1919,0.1924,0.1952,0.2018,0.2048,0.2127,0.2163,0.2226,0.2249,0.2337,0.2315,0.2436,0.2395,0.2435,0.2465,0.247,0.2361,0.2321,0.2218,0.2249,0.2499,0.2497,0.2495,0.2494,0,0.1803,0.1844,0.1861,0.1876,0.1928,0.196,0.1996,0.2067,0.21,0.2199,0.2249,0.2327,0.2387,0.2449,0.2515,0.2488,0.2634,0.2602,0.2551,0.2545,0.2368,0.234,0.2688,0.2688,0.2688,0.2688,0.2687,0,0.1777,0.1799,0.1853,0.1864,0.1898,0.1942,0.1984,0.205,0.2128,0.2182,0.2268,0.2332,0.2426,0.2508,0.2548,0.2595,0.2669,0.2573,0.2572,0.2383,0.2358,0.258,0.2566,0.2692,0.2691,0.269,0.2689,0,0.1732,0.1768,0.1793,0.1856,0.1879,0.1904,0.1971,0.2007,0.2104,0.2184,0.2225,0.2366,0.2483,0.2555,0.267,0.2638,0.269,0.2686,0.2451,0.2418,0.2557,0.2545,0.2638,0.2635,0.2633,0.2632,0.263,0,0.1712,0.1716,0.1778,0.1796,0.1826,0.1867,0.19,0.199,0.203,0.2199,0.2241,0.2388,0.2458,0.2585,0.2577,0.2617,0.269,0.2423,0.2321,0.2566,0.2556,0.2547,0.2538,0.2127,0.2122,0.2117,0.2114,0,0.1666,0.1689,0.1712,0.1743,0.1781,0.1813,0.187,0.189,0.2007,0.2088,0.2216,0.2287,0.241,0.2345,0.2379,0.2372,0.239,0.233,0.2678,0.2156,0.2088,0.2076,0.2084,0.2074,0.2078,0.2081,0.2083,0.2085,0.1635,0.164,0.1662,0.1691,0.1726,0.175,0.1759,0.1807,0.1856,0.1938,0.2079,0.2124,0.2156,0.2096,0.2049,0.2019,0.2185,0.2074,0.2087,0.2105,0.2009,0.194,0.1881,0.1884,0.1886,0.1888,0.189,0,0.1578,0.1594,0.1611,0.1637,0.1631,0.1695,0.1734,0.1702,0.1717,0.179,0.1857,0.1722,0.1676,0.1739,0.1618,0.16,0.1579,0.1541,0.1496,0.1537,0.1573,0.1449,0.1173,0.1171,0.1169,0.1167,0,0,0.1553,0.1544,0.1557,0.1533,0.1562,0.1573,0.1588,0.155,0.155,0.1474,0.1478,0.1598,0.1672,0.1395,0.1355,0.1246,0.1382,0.1196,0.1774,0.1762,0.1796,0.1887,0.1743,0,0,0,0,0]},{"header":{"parameterUnit":"m.s-1","parameterCategory":2,"la1":30.2991,"la2":30.254,"lo1":-89.0895,"lo2":-89.0444,"dy":0.0017,"dx":0.0017,"nx":28,"ny":28,"refTime":"2024-03-30T09:00:00:Z","depth":"2","parameterNumber":3,"parameterNumberName":"V-component_of_CURRENTS"},"data":[0,0,0,0,0,0,0,0,0,0,0,0,0,0,0,0,0,0,0,0,0,0,0,0,0,0,0,0,0,0,0,0,0,0,0,0,0,0,0,0,0,0,0,0,0,0,0,0,0,0,0,0,0,0,0,0,0,0,-0.0082,-0.0082,0,-0.0092,-0.0093,-0.0093,-0.0106,-0.0106,-0.0107,-0.0107,-0.0126,-0.0126,-0.0126,0,0,0,0,0,0,0,0,0,0,0,0,0,-0.0087,-0.0086,-0.0082,-0.0082,-0.0082,-0.0092,-0.0093,-0.0093,-0.0106,-0.0106,-0.0107,-0.0107,-0.0125,-0.0126,-0.0126,0,0,0,0,0,0,0,0,0,0,0,0,0,-0.009,-0.0086,-0.0082,-0.0089,-0.009,-0.0092,-0.0093,-0.0093,-0.0106,-0.0106,-0.0107,-0.0107,-0.0125,-0.0126,-0.0126,-0.0125,0,0,-0.0128,-0.0128,0,0,0,0,0,0,0,0,-0.009,-0.009,-0.0088,-0.0089,-0.009,-0.0098,-0.0101,-0.0104,-0.0106,-0.0101,-0.0107,-0.0107,-0.0116,-0.0118,-0.012,-0.0126,-0.0127,-0.0128,-0.0128,-0.0129,-0.0129,0,0,0,0,0,0,0,-0.009,-0.009,-0.0087,-0.0088,-0.0089,-0.0097,-0.0098,-0.0102,-0.0108,-0.0101,-0.0102,-0.0102,-0.0117,-0.0119,-0.0121,-0.0127,-0.0128,-0.0129,-0.0129,-0.0129,-0.0128,-0.0127,0,0,0,0,0,0,-0.0086,-0.0089,-0.0086,-0.0087,-0.009,-0.0096,-0.0097,-0.0095,-0.0108,-0.0109,-0.0102,-0.0103,-0.0118,-0.012,-0.0121,-0.0107,-0.0129,-0.0129,-0.013,-0.0128,-0.0128,-0.0127,0,0,0,0,0,0,-0.0086,-0.0086,-0.0086,-0.0088,-0.0089,-0.0096,-0.0094,-0.0095,-0.0097,-0.0108,-0.011,-0.0102,-0.0119,-0.0121,-0.0118,-0.0109,-0.0129,-0.013,-0.0129,-0.0128,-0.0128,-0.0087,0,0,0,0,0,0,-0.0086,-0.0085,-0.0083,-0.0088,-0.0088,-0.0081,-0.0094,-0.0095,-0.0097,-0.0098,-0.0109,-0.0111,-0.0119,-0.0117,-0.0119,-0.011,-0.013,-0.0129,-0.0128,-0.0128,-0.0089,-0.0086,-0.0082,0,0,0,0,0,-0.0086,-0.0078,-0.0083,-0.0083,-0.0085,-0.008,-0.0081,-0.0088,-0.0096,-0.0092,-0.0099,-0.011,-0.0114,-0.0117,-0.0119,-0.011,-0.0129,-0.0129,-0.0128,-0.0091,-0.0086,-0.0083,0,0,0,0,0,0,-0.0079,-0.0079,-0.0084,-0.0077,-0.0077,-0.0082,-0.008,-0.0086,-0.0088,-0.009,-0.0103,-0.0105,-0.0101,-0.0111,-0.0114,-0.0108,-0.0125,-0.0124,-0.0096,-0.0092,-0.0089,-0.0073,-0.0131,0,0,0,0,0,-0.0076,-0.007,-0.0073,-0.0067,-0.0067,-0.0074,-0.0074,-0.0077,-0.008,-0.0082,-0.0089,-0.0097,-0.0099,-0.01,-0.0105,-0.01,-0.0106,-0.0096,-0.0093,-0.009,-0.0079,-0.0081,-0.0076,-0.0125,-0.0125,-0.0125,0,0,-0.0073,-0.0071,-0.0069,-0.0065,-0.0068,-0.0057,-0.0075,-0.007,-0.006,-0.0083,-0.0074,-0.0085,-0.0095,-0.0088,-0.0088,-0.0095,-0.0081,-0.0089,-0.0086,-0.0076,-0.0079,-0.0074,-0.007,-0.0124,-0.0124,-0.0124,0,0,-0.0056,-0.0061,-0.0049,-0.0047,-0.0045,-0.0045,-0.0042,-0.0045,-0.0047,-0.0039,-0.0053,-0.0054,-0.0061,-0.0062,-0.0064,-0.0045,-0.0063,-0.0053,-0.0021,-0.0023,-0.0019,-0.0016,-0.0021,-0.0018,-0.0051,-0.0051,-0.0051,0,-0.0051,-0.0036,-0.0045,-0.0031,-0.0024,-0.0037,-0.0018,-0.002,-0.0021,-0.0014,-0.003,-0.0032,-0.0044,-0.003,-0.0025,-0.0036,-0.0043,-0.0035,-0.0018,-0.0015,-0.0012,-0.0018,-0.0015,-0.0049,-0.0049,-0.0049,-0.0049,0,-0.0026,-0.0014,-0.0006,0.0009,0.0016,0.0029,0.0028,0.0036,0.0031,0.0029,0.0038,0.0019,0.0022,0.0012,0.0,0.0016,0.0002,-0.0014,-0.0026,-0.0004,-0.0013,-0.0011,-0.0046,-0.0046,-0.0047,-0.0048,0,0,-0.0007,0.001,0.0014,0.0029,0.0039,0.0052,0.0071,0.009,0.0108,0.0096,0.0119,0.0104,0.009,0.0086,0.0065,0.006,0.007,0.0035,0.0034,0.0034,0.0064,0.0038,0.0037,0.0055,0.0056,0.0057,0.0048,0,0.002,0.0056,0.0057,0.0094,0.0114,0.0113,0.0137,0.0151,0.0151,0.0169,0.0149,0.0159,0.0118,0.0121,0.0109,0.0085,0.0077,0.0073,0.0039,0.0038,0.0016,0.004,0.0059,0.0052,0.005,0.005,0.0051,0,0.005,0.0072,0.0114,0.0147,0.0156,0.0178,0.0218,0.0235,0.0251,0.0254,0.0253,0.0232,0.023,0.0187,0.0156,0.0154,0.0115,0.0088,0.0086,0.0052,0.0016,0.003,0.0056,0.0054,0.0054,0.0053,0.0053,0,0.008,0.0114,0.0152,0.0161,0.0196,0.0221,0.0243,0.0266,0.0294,0.031,0.0335,0.0309,0.0316,0.0262,0.0199,0.018,0.0162,0.0127,0.0065,0.0062,0.0069,0.0065,0.0104,0.0104,0.0104,0.0104,0.0104,0,0.0112,0.0142,0.017,0.0191,0.0245,0.0256,0.0311,0.0329,0.0364,0.0419,0.0381,0.0424,0.0336,0.031,0.0232,0.0162,0.0186,0.0081,0.0063,0.0081,0.008,0.0071,0.0067,0.0104,0.0104,0.0104,0.0104,0,0.014,0.0156,0.0201,0.0244,0.0261,0.0301,0.0359,0.0398,0.043,0.0501,0.0516,0.052,0.0496,0.0394,0.0319,0.022,0.0145,0.0112,0.0136,0.012,0.0035,0.0034,0.004,0.0039,0.0038,0.0037,0.0037,0,0.0159,0.0185,0.0238,0.0272,0.0294,0.035,0.0393,0.0431,0.0481,0.0576,0.0622,0.0622,0.064,0.0505,0.0343,0.0196,0.017,0.0096,0.0056,0.0049,0.0031,0.0031,0.003,0.008,0.008,0.008,0.008,0,0.0196,0.0212,0.0248,0.0312,0.0362,0.0421,0.0489,0.0548,0.0617,0.0703,0.0824,0.0849,0.0721,0.0588,0.0355,0.0249,0.0114,0.0087,0.0095,0.0086,0.0084,0.0067,0.0066,0.0079,0.0079,0.0079,0.0079,0.0079,0.0222,0.0252,0.0294,0.0356,0.0411,0.0496,0.0565,0.0669,0.079,0.0934,0.0948,0.0991,0.0802,0.0519,0.0335,0.0125,0.0125,0.0035,0.0036,0.0038,0.0037,0.0034,0.0018,0.0018,0.0018,0.0018,0.0017,0,0.0253,0.0283,0.0338,0.0413,0.0479,0.05,0.0628,0.0728,0.0908,0.1014,0.1114,0.0948,0.0781,0.0567,0.0262,0.0066,0.0052,0.0001,0.0032,0.0034,0.0036,0.0036,0.0016,0.0015,0.0015,0.0014,0,0,0.0272,0.0319,0.0343,0.045,0.0508,0.0612,0.0695,0.0873,0.0982,0.1122,0.114,0.11,0.0837,0.0609,0.0362,0.0197,0.0155,0.0156,0.0177,0.0246,0.025,0.0074,0.0078,0,0,0,0,0]}],[{"header":{"parameterUnit":"m.s-1","parameterCategory":2,"la1":30.2991,"la2":30.254,"lo1":-89.0895,"lo2":-89.0444,"dy":0.0017,"dx":0.0017,"nx":28,"ny":28,"refTime":"2024-03-30T09:00:00:Z","depth":"4","parameterNumber":2,"parameterNumberName":"U-component_of_CURRENTS"},"data":[0,0,0,0,0,0,0,0,0,0,0,0,0,0,0,0,0,0,0,0,0,0,0,0,0,0,0,0,0,0,0,0,0,0,0,0,0,0,0,0,0,0,0,0,0,0,0,0,0,0,0,0,0,0,0,0,0,0,0.1041,0.1042,0,0.1075,0.1075,0.1075,0.111,0.111,0.1111,0.1112,0.117,0.1171,0.1172,0,0,0,0,0,0,0,0,0,0,0,0,0,0.0977,0.0978,0.1041,0.1042,0.1043,0.1075,0.1075,0.1075,0.111,0.111,0.1111,0.1112,0.117,0.1171,0.1172,0,0,0,0,0,0,0,0,0,0,0,0,0,0.1005,0.0978,0.1041,0.1065,0.1068,0.1074,0.1075,0.1075,0.1109,0.111,0.1111,0.1112,0.1169,0.1171,0.1172,0.1159,0,0,0.1176,0.1177,0,0,0,0,0,0,0,0,0.1003,0.1007,0.1061,0.1064,0.1067,0.1091,0.1074,0.1105,0.1109,0.1091,0.1112,0.1113,0.1147,0.115,0.115,0.1162,0.1165,0.1176,0.1177,0.1178,0.1178,0,0,0,0,0,0,0,0.1001,0.1006,0.1052,0.1062,0.1065,0.1064,0.1069,0.1079,0.1111,0.1093,0.1096,0.1103,0.1148,0.1149,0.1152,0.1165,0.1176,0.1177,0.1178,0.1179,0.1258,0.1259,0,0,0,0,0,0,0.1003,0.1004,0.1051,0.1053,0.104,0.1065,0.107,0.108,0.1111,0.1117,0.1102,0.1105,0.1146,0.115,0.1154,0.1211,0.1178,0.1179,0.118,0.1256,0.1258,0.1259,0,0,0,0,0,0,0.1001,0.1007,0.105,0.1031,0.1037,0.1065,0.1076,0.108,0.1108,0.1118,0.1124,0.1129,0.1147,0.1152,0.1186,0.1211,0.1179,0.1181,0.1255,0.1257,0.1259,0.1281,0,0,0,0,0,0,0.0999,0.1006,0.1025,0.1031,0.1038,0.1072,0.1075,0.108,0.111,0.1115,0.1142,0.1147,0.1148,0.1183,0.1187,0.1213,0.1182,0.1253,0.1256,0.1258,0.1279,0.1283,0.1288,0,0,0,0,0,0.0997,0.1013,0.1026,0.1032,0.106,0.1073,0.1076,0.1098,0.1111,0.1126,0.1146,0.1148,0.1202,0.1185,0.1189,0.1216,0.1252,0.1255,0.1258,0.1277,0.1282,0.1287,0,0,0,0,0,0,0.0993,0.1019,0.1033,0.1057,0.1074,0.108,0.1098,0.1111,0.1137,0.1149,0.1157,0.1163,0.1204,0.1207,0.1189,0.1248,0.123,0.1234,0.1243,0.1249,0.1253,0.126,0.1183,0,0,0,0,0,0.1002,0.1024,0.1043,0.1064,0.1075,0.1091,0.1105,0.1119,0.1137,0.115,0.117,0.1194,0.1213,0.123,0.1247,0.1273,0.1284,0.1296,0.1301,0.1305,0.1314,0.1351,0.136,0.1269,0.1269,0.1269,0,0,0.1004,0.1023,0.1035,0.1066,0.108,0.1095,0.1102,0.1128,0.1147,0.1152,0.1192,0.1211,0.1225,0.1257,0.1276,0.1266,0.1336,0.1308,0.1311,0.1319,0.1355,0.1364,0.1372,0.1271,0.127,0.127,0,0,0.1009,0.1039,0.1057,0.1075,0.1107,0.1114,0.1128,0.1153,0.1175,0.1208,0.122,0.1256,0.1285,0.1301,0.131,0.135,0.1359,0.1364,0.139,0.1426,0.1434,0.1441,0.1461,0.1469,0.1365,0.1365,0.1365,0,0.1016,0.1039,0.1064,0.1084,0.11,0.1125,0.1142,0.1163,0.1198,0.1222,0.1229,0.129,0.1304,0.134,0.1359,0.136,0.138,0.1365,0.1432,0.1439,0.1445,0.1464,0.1473,0.1366,0.1366,0.1366,0.1366,0,0.1025,0.1054,0.1065,0.1099,0.1119,0.1139,0.1167,0.1201,0.1232,0.1255,0.1312,0.1331,0.137,0.1381,0.1384,0.1441,0.1439,0.1432,0.1414,0.1456,0.1473,0.1482,0.1368,0.1368,0.1367,0.1367,0,0,0.1014,0.1062,0.1069,0.1087,0.1131,0.1143,0.1185,0.1226,0.1258,0.1305,0.135,0.1392,0.1419,0.1432,0.1444,0.1477,0.1538,0.1482,0.1483,0.1496,0.1616,0.1502,0.15,0.1548,0.155,0.1551,0.1607,0,0.1016,0.1049,0.1075,0.1106,0.1124,0.1165,0.1195,0.124,0.1284,0.1335,0.1379,0.1427,0.1431,0.1462,0.1496,0.1533,0.1565,0.1523,0.158,0.1582,0.147,0.1508,0.1557,0.1613,0.1615,0.1617,0.1618,0,0.1014,0.1038,0.1069,0.1113,0.1124,0.115,0.121,0.1242,0.1319,0.1358,0.1421,0.146,0.1529,0.1522,0.1605,0.1583,0.161,0.1627,0.163,0.1522,0.1484,0.1567,0.1634,0.1633,0.1632,0.1631,0.163,0,0.0984,0.1032,0.1056,0.1072,0.1125,0.1157,0.119,0.1259,0.1293,0.1389,0.143,0.1508,0.1557,0.161,0.1661,0.1648,0.174,0.1719,0.1636,0.1628,0.1704,0.1696,0.1777,0.1777,0.1777,0.1777,0.1777,0,0.0966,0.0987,0.1049,0.1062,0.1094,0.1143,0.1188,0.1238,0.1314,0.1351,0.1445,0.1485,0.1587,0.1648,0.1684,0.1686,0.1761,0.1648,0.1638,0.1711,0.1703,0.1709,0.1701,0.1779,0.1779,0.1778,0.1778,0,0.0925,0.0966,0.0995,0.1059,0.1082,0.1107,0.1179,0.1198,0.1291,0.1347,0.1387,0.1496,0.1574,0.1651,0.1738,0.1695,0.1722,0.1704,0.1781,0.1773,0.1579,0.1571,0.1608,0.1605,0.1602,0.1599,0.1597,0,0.0903,0.0919,0.0985,0.0994,0.1026,0.1074,0.1091,0.118,0.1201,0.1333,0.1343,0.1466,0.1528,0.156,0.1646,0.1698,0.1681,0.1671,0.1618,0.1577,0.1564,0.1561,0.1557,0.1593,0.1592,0.1591,0.159,0,0.0861,0.0895,0.0917,0.0933,0.0955,0.0968,0.101,0.1024,0.1118,0.1225,0.1281,0.1343,0.142,0.1492,0.1545,0.1577,0.1664,0.1639,0.1645,0.1596,0.1558,0.1548,0.1548,0.158,0.1581,0.1582,0.1583,0,0.0832,0.0829,0.0852,0.0853,0.0864,0.0836,0.0882,0.0911,0.0955,0.1114,0.1134,0.1275,0.1397,0.1429,0.1481,0.1503,0.1478,0.1418,0.1435,0.1447,0.137,0.1297,0.1236,0,0,0,0,0,0.0801,0.0773,0.0762,0.0735,0.0732,0.0734,0.08,0.0849,0.0964,0.0968,0.1052,0.1129,0.1215,0.1291,0.1285,0.1399,0.1472,0.1382,0.1407,0.1523,0.1535,0.1459,0,0,0,0,0,0,0.0771,0.0767,0.0732,0.0623,0.0577,0.0554,0.0591,0.0675,0.0695,0.0844,0.0908,0.1029,0.1141,0.1201,0.125,0.1273,0.1259,0.1479,0.1476,0.1516,0.1527,0.1536,0.1463,0,0,0,0,0]},{"header":{"parameterUnit":"m.s-1","parameterCategory":2,"la1":30.2991,"la2":30.254,"lo1":-89.0895,"lo2":-89.0444,"dy":0.0017,"dx":0.0017,"nx":28,"ny":28,"refTime":"2024-03-30T09:00:00:Z","depth":"4","parameterNumber":3,"parameterNumberName":"V-component_of_CURRENTS"},"data":[0,0,0,0,0,0,0,0,0,0,0,0,0,0,0,0,0,0,0,0,0,0,0,0,0,0,0,0,0,0,0,0,0,0,0,0,0,0,0,0,0,0,0,0,0,0,0,0,0,0,0,0,0,0,0,0,0,0,-0.0065,-0.0065,0,-0.0077,-0.0077,-0.0077,-0.0085,-0.0085,-0.0085,-0.0085,-0.0107,-0.0108,-0.0108,0,0,0,0,0,0,0,0,0,0,0,0,0,-0.0056,-0.0056,-0.0065,-0.0065,-0.0065,-0.0077,-0.0077,-0.0077,-0.0085,-0.0085,-0.0085,-0.0085,-0.0107,-0.0108,-0.0108,0,0,0,0,0,0,0,0,0,0,0,0,0,-0.0062,-0.0056,-0.0065,-0.0071,-0.0072,-0.0076,-0.0077,-0.0077,-0.0085,-0.0085,-0.0085,-0.0085,-0.0107,-0.0108,-0.0109,-0.0109,0,0,-0.0111,-0.0111,0,0,0,0,0,0,0,0,-0.0062,-0.0063,-0.007,-0.0071,-0.0072,-0.008,-0.0082,-0.0088,-0.0085,-0.0079,-0.0085,-0.0085,-0.01,-0.0101,-0.0102,-0.011,-0.0111,-0.0111,-0.0111,-0.0111,-0.0112,0,0,0,0,0,0,0,-0.0062,-0.0062,-0.0069,-0.007,-0.0071,-0.0076,-0.0077,-0.0083,-0.0088,-0.008,-0.008,-0.0083,-0.01,-0.0101,-0.0102,-0.0111,-0.0111,-0.0111,-0.0112,-0.0112,-0.0126,-0.0126,0,0,0,0,0,0,-0.0061,-0.0062,-0.0068,-0.0069,-0.0068,-0.0076,-0.0077,-0.0077,-0.0088,-0.009,-0.0083,-0.0083,-0.01,-0.0101,-0.0103,-0.0101,-0.0111,-0.0112,-0.0113,-0.0126,-0.0126,-0.0126,0,0,0,0,0,0,-0.0061,-0.0061,-0.0068,-0.0066,-0.0068,-0.0076,-0.0075,-0.0077,-0.008,-0.009,-0.0092,-0.0085,-0.01,-0.0102,-0.0107,-0.0102,-0.0112,-0.0113,-0.0126,-0.0126,-0.0126,-0.0099,0,0,0,0,0,0,-0.006,-0.0061,-0.0061,-0.0066,-0.0068,-0.0068,-0.0075,-0.0077,-0.0081,-0.0082,-0.0092,-0.0094,-0.01,-0.0106,-0.0108,-0.0103,-0.0114,-0.0126,-0.0126,-0.0126,-0.01,-0.0098,-0.0097,0,0,0,0,0,-0.006,-0.0057,-0.0061,-0.0062,-0.0068,-0.0067,-0.0068,-0.0074,-0.0081,-0.0079,-0.0087,-0.0094,-0.0107,-0.0106,-0.0108,-0.0104,-0.0127,-0.0126,-0.0126,-0.0101,-0.0099,-0.0097,0,0,0,0,0,0,-0.0054,-0.0058,-0.0063,-0.0062,-0.0064,-0.0069,-0.0069,-0.0075,-0.0079,-0.0081,-0.0092,-0.0095,-0.0098,-0.0106,-0.0105,-0.0109,-0.0118,-0.0119,-0.0098,-0.0096,-0.0095,-0.0084,-0.0114,0,0,0,0,0,-0.0053,-0.0052,-0.0057,-0.0057,-0.0058,-0.0064,-0.0066,-0.0069,-0.0074,-0.0076,-0.0084,-0.0093,-0.0099,-0.0101,-0.0108,-0.0109,-0.012,-0.0109,-0.0107,-0.0105,-0.0099,-0.0111,-0.011,-0.0126,-0.0126,-0.0126,0,0,-0.0051,-0.0053,-0.0054,-0.0055,-0.0059,-0.0052,-0.0066,-0.0066,-0.0059,-0.0078,-0.0075,-0.0088,-0.0098,-0.0098,-0.01,-0.0104,-0.0108,-0.0105,-0.0104,-0.0098,-0.0111,-0.0109,-0.0108,-0.0126,-0.0126,-0.0126,0,0,-0.0042,-0.0049,-0.0043,-0.0043,-0.0045,-0.0046,-0.0046,-0.0051,-0.0052,-0.0051,-0.0064,-0.0072,-0.0081,-0.0085,-0.0089,-0.0083,-0.0099,-0.0088,-0.0068,-0.008,-0.0079,-0.0078,-0.0093,-0.0094,-0.0086,-0.0086,-0.0086,0,-0.0039,-0.0031,-0.0041,-0.0034,-0.0029,-0.0042,-0.003,-0.0032,-0.0037,-0.0035,-0.0046,-0.0058,-0.0072,-0.0069,-0.0068,-0.0077,-0.0089,-0.0074,-0.0077,-0.0076,-0.0076,-0.0092,-0.0093,-0.0084,-0.0085,-0.0085,-0.0085,0,-0.0023,-0.0016,-0.0013,-0.0005,-0.0003,0.0005,0.0002,0.0005,-0.0001,-0.0004,-0.0006,-0.0026,-0.0031,-0.0041,-0.0052,-0.0053,-0.0065,-0.0074,-0.008,-0.0072,-0.009,-0.0091,-0.0083,-0.0083,-0.0083,-0.0084,0,0,-0.0011,-0.0002,0.0001,0.0012,0.0014,0.0022,0.0032,0.0042,0.0054,0.0038,0.0051,0.0029,0.0014,0.0008,-0.0012,-0.0026,-0.0037,-0.0046,-0.0048,-0.0058,-0.0067,-0.0069,-0.0071,-0.0048,-0.0048,-0.0048,-0.0083,0,0.0009,0.0032,0.0031,0.0057,0.007,0.0067,0.0082,0.0087,0.0084,0.0091,0.0067,0.0069,0.0034,0.0033,0.0012,-0.0023,-0.0039,-0.0027,-0.0077,-0.0078,-0.0078,-0.0072,-0.0048,-0.0084,-0.0084,-0.0085,-0.0085,0,0.003,0.0044,0.0072,0.0097,0.0103,0.0119,0.0143,0.0155,0.0157,0.0155,0.0144,0.0124,0.0103,0.0073,0.0016,0.0025,-0.0018,-0.0049,-0.0052,-0.0062,-0.0083,-0.0094,-0.0088,-0.0087,-0.0087,-0.0087,-0.0087,0,0.0051,0.0076,0.0102,0.0108,0.0131,0.0149,0.0166,0.0176,0.0198,0.0197,0.0211,0.0172,0.0165,0.0106,0.0033,0.0026,-0.0031,-0.0048,-0.0091,-0.0092,-0.0092,-0.0092,-0.0086,-0.0085,-0.0085,-0.0085,-0.0085,0,0.0074,0.0096,0.0116,0.013,0.017,0.0177,0.0222,0.0229,0.0253,0.0287,0.0247,0.026,0.0173,0.0128,0.0053,-0.0022,-0.0018,-0.0083,-0.0098,-0.0081,-0.008,-0.0093,-0.0093,-0.0087,-0.0086,-0.0086,-0.0086,0,0.009,0.0102,0.0134,0.0166,0.0181,0.021,0.0267,0.0303,0.0315,0.0358,0.0364,0.0329,0.0268,0.0175,0.0079,0.0013,-0.0063,-0.0092,-0.0064,-0.0078,-0.0122,-0.0121,-0.0139,-0.0139,-0.014,-0.014,-0.014,0,0.0099,0.0117,0.0158,0.0187,0.0205,0.0254,0.0298,0.033,0.0374,0.0402,0.043,0.0384,0.0346,0.0212,0.0103,-0.0039,-0.0063,-0.0106,-0.0118,-0.0114,-0.0126,-0.0125,-0.0123,-0.0141,-0.0141,-0.0141,-0.0141,0,0.0117,0.013,0.0155,0.0215,0.0264,0.0328,0.0392,0.0428,0.0473,0.0481,0.0491,0.042,0.035,0.0225,0.0114,0.0011,-0.008,-0.0109,-0.011,-0.0122,-0.0116,-0.0128,-0.0126,-0.0142,-0.0141,-0.0141,-0.0141,0,0.013,0.0149,0.0188,0.0243,0.031,0.0391,0.0421,0.0479,0.0519,0.0544,0.0543,0.0461,0.0406,0.0251,0.0151,0.0047,0.0015,-0.0025,-0.0031,-0.0031,0.0004,0.0028,0.0039,0,0,0,0,0,0.0142,0.017,0.022,0.029,0.0362,0.0407,0.0484,0.0513,0.055,0.0564,0.0557,0.0491,0.0344,0.0279,0.0175,0.0136,-0.001,0.0009,-0.006,-0.0146,-0.0145,-0.0123,0,0,0,0,0,0,0.0152,0.0191,0.0218,0.0325,0.0383,0.0475,0.0527,0.0552,0.0563,0.057,0.0494,0.0457,0.0312,0.0402,0.017,0.0139,0.0079,-0.006,-0.0063,-0.0147,-0.0146,-0.0145,-0.0122,0,0,0,0,0]}]]